Delta Virtual Airport Information Service

Long Beach Airport

ICAO: KLGB Country: United States
Latitude: 33.8177 Longitude: -118.151
Latest Arrival : DAL1441 (KSLC-KLGB) Latest Departure : DAL1460 (KLGB-KSLC)


WX CaptureLIVE
Data provided by noaa.gov | Fetched at 05:19:31

METAR : KLGB 300953Z AUTO 00000KT 10SM CLR 20/17 A2992 RMK AO2 SLP132 T02000167

TAF : KLGB 300532Z 3006/0106 VRB03KT P6SM SKC FM301900 20005KT P6SM SKC FM302200 30008KT P6SM SKC FM010500 VRB03KT P6SM SKC


Runway Data for KLGB
Data provided by openaviationdata.com

Runway ID Mag Var Hdg Length Elevation Surface ILS Freq ILS Id ILS Slope
07L 13 76° 6186 ft 60 ft Asphalt -- -- --
07R 13 76° 5413 ft 60 ft Asphalt -- -- --
12 13 121° 10003 ft 60 ft Asphalt -- -- --
16L 13 166° 4274 ft 60 ft Asphalt -- -- --
16R 13 166° 4479 ft 60 ft Asphalt -- -- --
25L 13 256° 5413 ft 60 ft Asphalt -- -- --
25R 13 256° 6186 ft 60 ft Asphalt -- -- --
30 13 301° 10003 ft 60 ft Asphalt 110.3 ILGB 3
34L 13 346° 4479 ft 60 ft Asphalt -- -- --
34R 13 346° 4274 ft 60 ft Asphalt -- -- --

Long Beach Airport, United States
Use only for reference purposes



Not for navigational purposes.